Shelbyville, IN

11:25 PM EST on November 16, 2019 (GMT -0500)
Shelbyville Municipal

Weather History for KGEZ - September, 2019

Change the Weather History Date:

Sunday, September 29, 2019

  Actual Average Record
Temperature  
Mean Temperature 79 °F 60 °F  
Max Temperature 90 °F 73 °F 90 °F (2019)
Min Temperature 67 °F 48 °F 37 °F (2006)
Degree Days  
Heating Degree Days 0 6  
Month to date heating degree days 3 72  
Since 1 July heating degree days 3 78  
Cooling Degree Days 14 1  
Month to date cooling degree days 219 93  
Year to date cooling degree days 1280 899  
Growing Degree Days 27 (Base 50)    
Moisture  
Dew Point 65 °F    
Average Humidity 67    
Maximum Humidity 87    
Minimum Humidity 46    
Precipitation  
Precipitation 0.00 in 0.11 in 1.10 in (1999)
Month to date precipitation 0.75 3.05  
Year to date precipitation 32.21 33.33  
Sea Level Pressure  
Sea Level Pressure 30.13 in    
Wind  
Wind Speed 7 mph (ESE)    
Max Wind Speed 17 mph    
Max Gust Speed 24 mph    
Visibility 10 miles    
Events      
T = Trace of Precipitation, MM = Missing Value Source: NWS Daily Summary

Daily Weather History Graph

Daily Weather History Graph

Search for Another Location

Airport or City:

Astronomy

Sep. 29, 2019 Rise Set
Actual Time 7:37 AM EDT 7:29 PM EDT
Civil Twilight 7:10 AM EDT 7:56 PM EDT
Nautical Twilight 6:39 AM EDT 8:27 PM EDT
Astronomical Twilight 6:07 AM EDT 8:58 PM EDT
Moon 8:27 AM EDT (9/29) 8:29 PM EDT (9/29)
Length of Visible Light 12h 45m
Length of Day
11h 51m
New Moon, 1% of the Moon is Illuminated
Sep 29
New Moon
Oct 5
First Quarter
Oct 13
Full
Oct 21
Last Quarter
Oct 27
New

Hourly Weather History & Observations

Time (EDT) Temp. Heat Index Dew Point Humidity Pressure Visibility Wind Dir Wind Speed Gust Speed Precip Events Conditions
12:53 AM 69.1 °F - 63.0 °F 81% 30.14 in 10.0 mi East 6.9 mph - N/A   Clear
1:53 AM 68.0 °F - 62.1 °F 81% 30.15 in 10.0 mi ENE 6.9 mph - N/A   Clear
2:53 AM 68.0 °F - 62.1 °F 81% 30.15 in 10.0 mi East 6.9 mph - N/A   Clear
3:53 AM 66.9 °F - 62.1 °F 84% 30.14 in 10.0 mi East 5.8 mph - N/A   Clear
4:53 AM 66.9 °F - 62.1 °F 84% 30.14 in 10.0 mi ESE 3.5 mph - N/A   Clear
5:53 AM 66.9 °F - 62.1 °F 84% 30.14 in 10.0 mi East 4.6 mph - N/A   Clear
6:53 AM 66.9 °F - 63.0 °F 87% 30.16 in 10.0 mi ESE 5.8 mph - N/A   Clear
7:53 AM 66.9 °F - 63.0 °F 87% 30.17 in 10.0 mi ESE 5.8 mph - N/A   Clear
8:53 AM 69.1 °F - 64.0 °F 84% 30.17 in 10.0 mi ESE 5.8 mph - N/A   Scattered Clouds
9:53 AM 72.0 °F - 64.9 °F 78% 30.18 in 10.0 mi ESE 6.9 mph - N/A   Mostly Cloudy
10:53 AM 77.0 °F - 66.0 °F 69% 30.17 in 10.0 mi SSE 8.1 mph - N/A   Partly Cloudy
11:53 AM 84.0 °F 86.3 °F 66.0 °F 55% 30.15 in 10.0 mi South 10.4 mph - N/A   Scattered Clouds
12:53 PM 86.0 °F 88.2 °F 66.0 °F 51% 30.14 in 10.0 mi South 10.4 mph - N/A   Mostly Cloudy
1:53 PM 87.1 °F 89.9 °F 66.9 °F 51% 30.13 in 10.0 mi SW 12.7 mph 18.4 mph N/A   Scattered Clouds
2:53 PM 88.0 °F 90.3 °F 66.0 °F 48% 30.11 in 10.0 mi WSW 11.5 mph 20.7 mph N/A   Clear
3:53 PM 88.0 °F 89.6 °F 64.9 °F 46% 30.09 in 10.0 mi SW 10.4 mph 20.7 mph N/A   Mostly Cloudy
4:53 PM 88.0 °F 89.6 °F 64.9 °F 46% 30.09 in 10.0 mi SW 8.1 mph - N/A   Mostly Cloudy
5:53 PM 87.1 °F 88.9 °F 64.9 °F 48% 30.09 in 10.0 mi West 6.9 mph - N/A   Scattered Clouds
6:53 PM 82.0 °F 84.9 °F 68.0 °F 62% 30.10 in 10.0 mi North 9.2 mph 21.9 mph N/A   Scattered Clouds
7:53 PM 79.0 °F - 68.0 °F 69% 30.11 in 10.0 mi NE 4.6 mph - N/A   Mostly Cloudy
8:53 PM 77.0 °F - 68.0 °F 74% 30.12 in 10.0 mi East 5.8 mph - N/A   Partly Cloudy
9:53 PM 75.9 °F - 68.0 °F 76% 30.12 in 10.0 mi East 5.8 mph - N/A   Clear
10:53 PM 75.0 °F - 66.9 °F 76% 30.12 in 10.0 mi East 4.6 mph - N/A   Clear
11:53 PM 73.0 °F - 66.9 °F 81% 30.11 in 10.0 mi ESE 6.9 mph - N/A   Clear